Printer-friendly version

IAU Minor Planet Center

Minor Planet Center

MPEC 2005-M22 : COMET P/2005 GF8 (LONEOS)

The following Minor Planet Electronic Circular may be linked-to from your own Web pages, but must not otherwise be redistributed electronically.


Read MPEC 2005-M21 Read MPEC 2005-M23


M.P.E.C. 2005-M22                                Issued 2005 June 20, 01:38 UT

     The Minor Planet Electronic Circulars contain information on unusual
         minor planets and routine data on comets.  They are published
   on behalf of Commission 20 of the International Astronomical Union by the
          Minor Planet Center, Smithsonian Astrophysical Observatory,
                          Cambridge, MA 02138, U.S.A.

                  Supported in part by the Brinson Foundation
             Prepared using the Tamkin Foundation Computer Network

                              MPC@CFA.HARVARD.EDU
          URL http://cfa-www.harvard.edu/iau/mpc.html  ISSN 1523-6714

                           COMET P/2005 GF8 (LONEOS)

Observations:
    PK05G08F   2005 06 09.56389 13 37 48.59 -11 53 36.8          18.0 T EM022372
    PK05G08F  C2005 06 16.20231 13 39 00.73 -11 57 25.6          18.0 T EM022673
    PK05G08F  C2005 06 16.20486 13 39 00.77 -11 57 25.7                 EM022673
    PK05G08F  C2005 06 16.20903 13 39 00.83 -11 57 25.9                 EM022673
    PK05G08F  C2005 06 16.21678 13 39 00.95 -11 57 26.4                 EM022673

Observer details:
372 Geisei.  Observer T. Seki.  0.60-m f/3.5 reflector.
673 Table Mountain Observatory, Wrightwood.  Observer J. Young.  0.6-m
    reflector + CCD.

Orbital elements:
    P/2005 GF8 (LONEOS)
Epoch 2005 Aug. 18.0 TT = JDT 2453600.5
T 2005 Aug. 17.36943 TT                                 MPC
q   2.8304319            (2000.0)            P               Q
n   0.06958473     Peri.  285.26746     -0.49303581     +0.86988597
a   5.8540993      Node   315.18258     -0.79004012     -0.45469728
e   0.5165043      Incl.    1.18949     -0.36435189     -0.19117737
P  14.16
Residuals in seconds of arc
050402 699  0.0   0.9+    050414 372  1.3+  0.3-    050501 415  0.4-  0.3-
050402 699  0.0   1.1+    050414 360  0.5+  0.4-    050501 215  0.2-  0.7-
050402 699  1.5-  1.1+    050414 D74  1.0+  0.4-    050501 215  0.3-  0.5-
050402 699  0.4-  0.2+    050414 D74  0.9+  0.5-    050502 415  0.1-  0.5-
050403 E12  0.1-  0.6+    050414 D74  0.8+  0.6-    050502 415  0.1-  0.3-
050403 E12  0.5-  0.3+    050414 349  0.1+  0.7-    050502 415  0.0   0.1+
050403 E12  0.2-  0.6+    050414 349  0.4+  0.8-    050502 372  0.9-  0.8+
050403 E12  0.1+  0.8+    050414 349  0.5+  0.7-    050503 372  0.1-  0.3+
050407 704  1.1+  0.6+    050415 850  0.1+  0.2+    050504 360  0.0   0.4-
050407 704  1.3+  0.7-    050415 850  1.5-  1.3+    050504 349  0.7-  0.2-
050407 704  1.1+  0.4+    050415 850  0.7-  0.0     050504 360  0.1-  0.3-
050411 691  0.2-  0.5+    050415 246  1.1+  0.2+    050504 349  0.8-  0.2-
050411 691  0.1+  0.3+    050415 246  0.9+  0.1+    050505 704  1.5+  0.1+
050411 691  0.1+  0.2+    050415 246  0.3+  0.1-    050505 704  0.8+  0.1-
050411 J95  0.5-  0.8-    050415 246  0.6+  0.3-    050505 704  1.7+  0.6+
050412 I77  0.1+  0.4-    050415 246  0.8+  0.1-    050505 704  0.4+  0.4+
050412 J95  0.2-  0.5-    050415 246  0.8+  0.1+    050506 703  1.3-  0.2+
050412 I77  0.2-  0.3-    050416 213  0.3+  0.2-    050506 703  1.0-  0.1+
050412 I77  0.1-  0.2-    050416 213  0.2+  0.1-    050506 703  0.3-  0.7+
050412 673  1.1+  0.5-    050416 213  0.9+  0.2-    050506 703  1.1-  0.6+
050412 691  0.5+  0.4-    050416 213  0.4+  0.3-    050506 232  0.2-  0.4+
050412 673  0.6+  0.5-    050416 213  0.1-  0.9-    050506 A61  0.5+  0.8-
050412 704  1.9+  0.7-    050418 850  1.8-  0.5+    050506 232  0.0   0.5+
050412 673  1.1+  0.3-    050418 850  0.7-  0.6-    050506 232  0.1+  0.3+
050412 673  0.6+  0.3-    050418 703  1.5-  0.1-    050506 A61  0.8-  1.5-
050412 691  0.2+  0.1-    050418 850  1.3-  0.0     050507 213  0.4-  0.4-
050412 704  0.9+  0.3+    050418 703  1.4-  0.1-    050507 213  0.5-  0.2-
050412 673  0.7+  0.4-    050418 703 (2.8-  1.3+)   050507 213  0.1-  0.1-
050412 673  0.6+  0.3-    050418 703  1.5-  0.8+    050508 A02  0.2-  0.1-
050412 704  0.9+  0.2+    050418 850  1.2-  0.0     050508 A02  0.3+  0.8-
050412 691  0.5+  0.2-    050418 704  0.1+  0.2-    050508 A02  2.0+  0.7-
050412 704  0.7+  0.1-    050418 704  0.1+  0.7+    050509 704  0.6+  0.2+
050412 704  0.6+  0.5+    050418 704  0.6+  0.2+    050509 704  0.4+  0.9+
050413 I77  0.2+  0.1+    050418 704  0.2-  0.2-    050509 704  0.7+  0.8-
050413 I77  0.2+  0.3+    050418 704  0.0   0.1+    050509 704 (0.3-  2.1-)
050413 I77  0.2+  0.1+    050418 608  1.0+  0.9+    050509 415  0.1-  0.2-
050413 G90  0.6+  0.2+    050418 608  1.3+  0.7+    050509 415  0.4-  0.3-
050413 G90  0.6+  0.2+    050418 608  0.9+  1.0+    050509 415  0.5-  0.2-
050413 G90  0.4+  0.2+    050420 I77  0.1-  0.0     050511 561  0.5-  0.6+
050413 854  0.7+  0.8+    050420 I77  0.0   0.3+    050511 561  0.1-  0.3+
050413 854  0.3-  0.1-    050420 I77  1.6-  0.3+    050511 561  0.4-  0.3+
050413 854  0.7+  0.2+    050420 699  0.5+  0.5-    050511 A32  0.0   0.4-
050413 I10  0.2-  0.3-    050420 699  0.6-  1.1+    050511 A32  1.0+  0.7+
050413 699  0.0   1.0+    050420 699 (0.2+  2.4+)   050512 699  0.1+  0.5+
050413 I10  0.7-  0.2+    050420 699  0.8+  0.6-    050512 699  0.6+  1.2+
050413 699  0.2-  0.5+    050429 360  0.3+  0.7-    050512 699  0.4+  1.0+
050413 I10  0.1-  0.3-    050429 360  0.2+  0.4-    050512 699  0.6+  0.5+
050413 699  0.0   0.3-    050429 360  0.2+  0.5-    050514 415  0.7-  0.2-
050413 673  0.5+  0.2-    050429 A61 (0.2+  3.9+)   050514 415  0.7-  0.0
050413 673  0.6+  0.4-    050429 213  0.0   0.0     050528 844  1.2+  0.4-
050413 673  0.5+  0.0     050429 213  0.1-  0.2-    050528 844  1.9+  0.7-
050413 673  0.4+  0.1-    050429 213  0.6-  0.8+    050528 844  1.2+  0.1-
050413 673  0.4+  0.1-    050429 232  1.5+  0.8-    050528 844  0.4-  1.1+
050413 673  0.2+  0.4-    050430 232  1.8+  0.7-    050528 844  0.4-  1.0+
050413 428  0.0   0.1-    050430 232 (2.1+  0.8-)   050602 J76  0.1+  0.1+
050413 428  0.3-  0.0     050430 A61 (3.1+  0.3+)   050602 J76  0.2-  0.2+
050413 428  0.6-  0.3-    050430 J87  0.0   0.4-    050602 J76  0.6-  0.2-
050413 428  0.0   0.0     050430 J87  0.0   0.6-    050609 372  0.2-  0.3+
050414 I10  0.4+  0.6+    050430 J87  0.1-  0.5-    050616 673  0.1-  0.4+
050414 I10  1.1-  1.1+    050501 644  0.1+  0.1-    050616 673  0.1-  0.5+
050414 I10  0.4-  1.3+    050501 644  0.1+  0.0     050616 673  0.0   0.5+
050414 372  0.2+  0.1-    050501 644  0.0   0.1+    050616 673  0.2+  0.4+
050414 360  0.1+  0.5-    050501 415  0.4-  0.5-
050414 360  0.5+  0.5-    050501 415  0.3-  0.2-

Brian G. Marsden             (C) Copyright 2005 MPC           M.P.E.C. 2005-M22

Read MPEC 2005-M21 Read MPEC 2005-M23


Our Web policy. Index to the CBAT/MPC/ICQ pages.


Valid HTML 4.01!